sat.trackr.live / text

‹ back to catalog

WREN-1

NORAD 60478 · 2024-149L

PAYLOAD ACTIVE UNKNOWN

§ Identity

Operator
Country
HUN
Launch date
2024-08-16
Launch site
AFWTR
Launch vehicle
Mass (kg)
RCS (m²)

External: N2YO · Heavens-Above · Gunter

§ Orbital elements

Epoch: 2026-05-25T05:07:13.835712Z

Period
93.47 min
Inclination
97.3765°
Eccentricity
0.0003460
Mean motion
15.40535339 rev/d
Perigee alt
442.2 km
Apogee alt
446.9 km
Semi-major
6,822.7 km
B*
4.9239e-4
RAAN
229.1020°
Arg perigee
4.7702°
Mean anomaly
355.3577°
Rev number
9,878

§ Raw data

WREN-11 60478U 24149L   26145.21335458  .00019940  00000+0  49239-3 0  99962 60478  97.3765 229.1020 0003460   4.7702 355.3577 15.40535339 98788

JSON: /api/v1/satellites/60478 · /tle

For live sub-satellite position, see the globe view (requires WebGL).

§ Visibility from observer

Set your observer location to see the next 7 days of passes ≥ 10°. The values pass through the URL so the page stays shareable.

No JS? Fill the form by hand. The geolocation button needs JavaScript.

§ Radio — SatNOGS DB

ModeDescriptionDownlinkUplink
GMSK Mode U - GMSK4k8 - Transmitter 401.750 MHz
LoRa On-board Whereabouts Locator (OWL) 137.925 MHz

2 transmitters · refreshed weekly from db.satnogs.org